Location: Drainage Ditch Number 48
(43.2875°N, 93.8924°W)
Time: 03:30:38
(UTC+00:00)

Daily predictions for brighter satellites

Satellite Brightness Start Highest point End
(mag) Time Altitude Azimuth Time Altitude Azimuth Time Altitude Azimuth
Aureole 3 Rocket 4.4 02:04:40 10° NNE 02:08:07 25° ENE 02:12:30 10° SE
Okean O Rocket 1.7 02:04:16 10° SSE 02:08:40 69° ENE 02:13:05 10° N
Cosmos-2242 3.1 02:05:57 10° S 02:10:09 80° W 02:14:25 10° N
USA 290 2.7 02:07:29 10° N 02:10:37 46° ENE 02:13:43 10° SE
Cosmos 2056 Rocket 4.3 02:06:43 10° N 02:11:48 40° ENE 02:16:46 10° SE
Cosmos 1072 Rocket 4.5 02:07:38 10° N 02:13:48 81° E 02:19:54 10° S
DELTA 2 DEB (DPAF) 4.1 02:16:19 10° NNE 02:20:34 88° WNW 02:24:47 10° SSW
Cosmos 1943 Rocket 2.9 02:18:28 10° NW 02:23:57 52° WSW 02:29:22 10° S
Cosmos 2084 3.9 02:21:15 10° NNW 02:24:49 39° NE 02:28:23 10° ESE
Cosmos 44 3.5 02:20:33 10° NNW 02:25:20 57° NE 02:29:44 10° SE
Cosmos 972 4.5 02:21:01 10° SSW 02:25:54 83° WNW 02:30:53 10° NNE
SL-8 R/B 3.8 02:23:45 10° SW 02:28:19 50° SE 02:32:56 10° ENE
Cosmos 1766 Rocket 4.4 02:28:19 10° N 02:32:23 34° ENE 02:36:11 11° SE
FALCON 9 R/B 3.2 02:33:59 10° WSW 02:38:15 42° SSE 02:50:27 10° ESE
ERS-1 Rocket 3.9 02:35:26 11° SE 02:39:39 34° ENE 02:44:10 10° N
Cosmos 494 Rocket 4.5 02:36:41 10° S 02:41:22 38° ESE 02:46:04 10° NE
ATLAS 3B R/B 3.1 02:33:41 10° NW 02:41:35 83° WSW 02:48:59 11° SSE
Cosmos 2221 2.6 02:38:20 10° S 02:42:35 60° E 02:46:50 10° NNE
Cosmos 2278 Rocket 4.4 02:39:38 10° NW 02:43:46 21° W 02:47:54 10° SSW
Cosmos 1464 Rocket 4.4 02:38:12 10° NNW 02:44:25 65° W 02:50:33 10° S
CZ-4B R/B 4.5 02:39:28 10° SSW 02:44:26 38° W 02:49:23 10° NNW
USA 245 4.0 02:44:24 13° E 02:45:05 15° ENE 02:46:28 10° NNE
Lacrosse 5 rocket 3.7 02:42:01 10° W 02:45:47 29° NNW 02:49:30 10° NNE
CZ-4C R/B 3.2 02:43:08 10° NNE 02:46:57 75° ESE 02:50:53 10° S
IRS-1C Rocket 4.3 02:42:58 12° SSE 02:47:49 57° ENE 02:52:58 10° N
Okean-O 2.6 02:44:11 10° SSE 02:48:35 86° WSW 02:53:01 10° NNW
Centaur D AC-29 3.9 02:45:19 10° S 02:49:33 20° SE 02:59:28 10° E
USA 281 4.3 02:49:24 11° ESE 02:54:49 32° NE 03:00:30 10° N
Cosmos 2297 3.7 02:49:32 10° NNW 02:55:19 78° ENE 03:00:02 15° SSE
Cosmos 1371 Rocket 4.1 02:52:35 10° NNW 02:57:58 84° WSW 03:02:42 13° SSE
MetOp-B 4.1 02:54:08 12° SSE 02:59:08 80° ENE 03:04:31 10° NNW
Cosmos 921 Rocket 3.0 02:56:36 10° SSW 03:01:04 83° ESE 03:05:35 10° NNE
Lacrosse 5 2.6 02:56:54 10° WNW 03:01:45 44° SW 03:05:39 15° SSE
Cosmos 1420 Rocket 4.5 03:01:08 10° NNW 03:06:21 59° WSW 03:11:13 12° S
Meteor 1-14 Rocket 4.4 03:00:47 10° N 03:06:37 62° ENE 03:11:08 18° SSE
Cosmos 1536 4.1 03:06:30 10° NNE 03:09:43 24° ENE 03:11:11 20° ESE
Cosmos 2279 Rocket 4.3 03:06:44 10° N 03:12:45 50° ENE 03:16:51 20° SE
Terra 2.0 03:11:35 21° SE 03:14:38 59° ENE 03:19:17 10° N
SPOT 3 Rocket 4.0 03:12:33 21° SE 03:15:46 48° ENE 03:20:42 10° N
Cosmos 1743 2.5 03:13:14 10° N 03:16:51 81° W 03:19:07 21° S
Cosmos 1634 Rocket 4.0 03:12:08 10° N 03:18:27 83° E 03:23:26 17° S
GEOS 3 Rocket 3.8 03:13:39 10° NE 03:18:37 46° ESE 03:23:28 10° SSW
SL-16 R/B 3.4 03:13:34 10° SW 03:18:58 45° WNW 03:24:25 10° NNE
IRS-1A Rocket 4.3 03:16:27 16° SSE 03:21:06 81° WSW 03:26:42 10° NNW
Cosmos 1603 4.1 03:17:41 17° SSE 03:21:38 41° ESE 03:26:56 10° NE
Spot 2 Rocket 3.6 03:20:07 23° SSE 03:23:14 64° ENE 03:28:14 10° N
Meteor 2-6 Rocket 4.2 03:17:39 10° S 03:23:18 90° E 03:28:48 10° N
SPOT 5 3.2 03:21:11 14° S 03:25:01 57° W 03:29:25 10° NNW
Cosmos 2263 4.2 03:20:07 10° NNW 03:25:50 76° ENE 03:29:20 25° SSE
Resurs 01 Rocket 4.3 03:27:25 10° SW 03:29:52 14° W 03:32:18 10° WNW
Cosmos 2369 Rocket 2.3 03:25:22 10° NNW 03:30:58 74° WSW 03:34:31 23° SSE
ISS -2.9 03:31:02 10° NW 03:34:15 43° NNE 03:35:42 26° E
Cosmos 1500 Rocket 4.3 03:30:58 10° N 03:34:58 36° ENE 03:36:17 29° ESE
Cosmos 1726 1.6 03:33:01 10° N 03:36:07 66° E 03:36:42 51° SE
Okean 3 Rocket 3.5 03:33:13 10° N 03:37:38 86° W 03:39:52 28° S
USA 276 2.3 03:37:49 10° WNW 03:39:27 40° W 03:39:27 40° W
USA 229 DEB 4.0 03:35:57 10° NW 03:43:29 79° WSW 03:48:32 26° SSE
Cosmos 1842 Rocket 3.8 03:40:11 17° SSW 03:43:34 71° W 03:48:00 10° N
USA 229 4.0 03:36:02 10° NW 03:43:36 80° WSW 03:48:38 26° SSE
Cosmos 1805 Rocket 4.3 03:40:41 10° N 03:44:47 38° ENE 03:45:58 32° ESE
Okean O Rocket 4.4 03:43:49 10° WSW 03:45:24 12° W 03:46:58 10° WNW
Ariane Rocket 3.0 03:43:07 27° S 03:45:56 82° WSW 03:51:02 10° NNW
BREEZE-M DEB (TANK) 3.8 03:31:42 10° SW 03:47:34 58° SE 03:51:32 10° ENE
USA 306 3.9 03:45:18 10° NW 03:48:51 35° NNE 03:50:49 21° E
ARGOS Delta rocket 4.4 03:46:26 20° S 03:49:49 55° W 03:54:36 10° NNW
Meteor 1-27 Rocket 3.7 03:51:15 31° SSE 03:53:45 59° E 03:59:10 10° NNE
Cosmos 2180 Rocket 4.4 03:49:47 10° N 03:55:59 78° E 03:59:06 31° SSE
Cosmos 1452 Rocket 3.4 03:52:39 10° NNW 03:57:55 86° WSW 04:00:07 36° SSE
Cosmos 468 4.5 03:54:01 15° SSW 03:58:18 84° WNW 04:03:33 10° NNE
Cosmos 1943 3.5 03:53:03 10° SW 03:58:42 67° WNW 04:04:22 10° NNE
Spot 1 3.8 03:54:57 10° NNE 03:59:03 85° ESE 04:00:37 38° S
Cosmos 1340 Rocket 3.0 04:01:12 48° ESE 04:01:34 50° E 04:05:27 10° NNE
SL-8 R/B 4.3 04:06:05 10° W 04:10:45 57° NNW 04:15:28 10° ENE
Sich 1 2.9 04:10:22 10° N 04:14:45 82° E 04:15:38 56° SSE
ARIANE 5 R/B 3.6 04:14:14 29° E 04:14:57 31° ENE 04:18:45 10° N
Meteor 2-4 Rocket 4.4 04:14:07 35° SE 04:15:32 41° E 04:21:03 10° NNE
Cosmos 1733 2.8 04:14:05 10° N 04:17:33 79° ENE 04:17:33 79° ENE
Meteor 2-9 Rocket 4.3 04:11:46 10° N 04:17:39 87° W 04:20:00 39° S
ERS-1 Rocket 4.4 04:15:21 17° SW 04:18:23 30° W 04:22:47 10° NW
Cosmos 1626 4.0 04:26:23 17° NE 04:26:23 17° NE 04:27:34 10° NE
H-2A R/B 3.9 04:26:26 25° ENE 04:26:52 25° ENE 04:30:21 10° N
Cosmos 1743 Rocket 3.5 04:22:29 10° N 04:26:54 81° W 04:27:41 59° S
Landsat 5 4.1 04:24:45 10° N 04:28:23 46° WNW 04:29:35 33° WSW
Lacrosse 4 Rocket 3.2 04:25:47 10° N 04:28:56 21° NE 04:30:01 19° ENE
USA 59 Rocket 1.1 04:25:35 10° NNW 04:29:22 39° NE 04:30:54 31° E
Cosmos 220 Rocket 4.5 04:31:24 44° E 04:31:24 44° E 04:35:07 10° NNE
Cosmos 1428 Rocket 4.4 04:32:48 43° S 04:34:56 76° E 04:41:02 10° N
Cosmos 614 Rocket 3.9 04:36:01 55° SSE 04:36:56 67° ESE 04:42:08 10° NNE
USA 281 3.5 04:36:16 35° S 04:38:58 57° WSW 04:45:28 10° NNW
Cosmos 1092 Rocket 4.0 04:38:02 45° SSE 04:39:51 64° E 04:46:06 10° NNE
Cosmos 1975 3.0 04:37:13 10° N 04:40:53 56° ENE 04:40:53 56° ENE
NOSS 2-1 (D) 4.1 04:39:10 10° NNW 04:43:04 53° NE 04:44:04 45° E
Cosmos 1302 Rocket 3.9 04:39:22 10° NNW 04:44:34 82° WSW 04:45:34 59° S
Cosmos 1992 Rocket 4.3 04:43:36 10° NNW 04:48:44 55° ENE 04:49:43 47° ESE
IRIDIUM 104 4.2 04:44:29 10° N 04:49:44 85° E 04:50:41 61° S
Terra 4.1 04:50:17 11° WSW 04:52:36 15° W 04:55:22 10° NW
Cosmos 1340 3.6 04:49:56 10° NNW 04:52:37 37° WNW 04:52:37 37° WNW
Cosmos 2195 Rocket 4.4 04:51:31 45° SSW 04:53:34 85° W 04:59:43 10° N
CZ-2C R/B 3.5 04:53:11 10° NNE 04:57:41 82° WNW 04:58:05 73° SW
IRIDIUM 114 4.3 04:53:38 10° N 04:58:53 80° W 04:59:49 60° SSW
Cosmos 1818 3.5 05:00:04 59° SE 05:00:15 60° ESE 05:05:39 10° NE
Cosmos 1328 Rocket 3.4 05:07:06 83° NNE 05:07:06 83° NNE 05:11:17 10° N
IRIDIUM 103 4.5 05:02:49 10° N 05:08:00 66° W 05:08:57 54° SW
Cosmos 1151 Rocket 4.2 05:08:17 31° WSW 05:09:15 35° WNW 05:13:16 10° N
Cosmos 1515 Rocket 4.4 05:09:54 38° ENE 05:09:54 38° ENE 05:13:20 10° NNE
ISS -1.1 05:07:53 10° WNW 05:08:29 14° W 05:08:29 14° W
Cosmos 2082 Rocket 4.4 05:12:28 11° E 05:12:28 11° E 05:13:13 10° E
Spot 4 3.9 05:12:22 59° E 05:12:39 60° ENE 05:17:21 10° N
Cosmos 1833 Rocket 3.2 05:13:06 41° E 05:13:06 41° E 05:18:08 10° NE
CZ-3 Stage 3 4.4 04:54:15 10° WSW 05:16:07 35° S 05:16:07 35° S
NOSS 2-1 (C) 3.6 05:14:54 10° NW 05:18:57 78° WSW 05:18:57 78° WSW
Cosmos 1470 Rocket 3.7 05:17:02 10° N 05:21:14 70° NE 05:21:14 70° NE
Cosmos 1766 3.9 05:17:59 10° N 05:20:51 49° NNE 05:20:51 49° NNE
Cosmos 1140 Rocket 4.4 05:22:15 35° E 05:22:15 35° E 05:26:32 10° NE
USA 306 4.3 05:18:56 10° WNW 05:20:55 26° W 05:20:55 26° W
Celestis-02/Orion 38 4.5 05:26:04 67° ESE 05:26:44 79° ENE 05:32:00 10° NNW
Cosmos 1470 4.1 05:25:37 10° N 05:28:10 32° NE 05:28:10 32° NE
H-2A R/B 3.6 05:26:30 10° NE 05:29:24 25° ENE 05:29:24 25° ENE
ALOS 2 2.8 05:30:51 62° ENE 05:30:51 62° ENE 05:34:59 10° N
Cosmos 1666 Rocket 4.3 05:26:51 10° NNW 05:30:43 43° W 05:30:43 43° W
Cosmos 1633 Rocket 3.5 05:27:11 10° NNW 05:31:16 53° W 05:31:16 53° W
Cosmos 1269 Rocket 4.2 05:41:11 55° WSW 05:42:03 64° WNW 05:47:18 10° NNE
Cosmos 1656 3.6 05:39:03 10° NNW 05:44:28 66° WSW 05:44:44 65° SW
Cosmos 407 Rocket 4.3 05:44:50 38° E 05:44:50 38° E 05:49:20 10° NE
Cosmos 2251 Rocket 4.4 05:45:41 35° E 05:45:41 35° E 05:50:01 10° NE
NOSS 3-3 (A) 3.9 05:43:44 46° WSW 05:45:23 70° NW 05:51:42 10° NNE
Cosmos 1933 Rocket 3.8 05:42:24 10° N 05:46:17 62° NE 05:46:17 62° NE
USA 267 3.1 05:44:15 10° NE 05:50:47 71° SE 05:52:17 54° SSW
ARIANE 5 R/B 4.2 05:51:42 24° W 05:51:42 24° W 05:54:54 10° NW
S3M 4.1 05:51:07 10° N 05:57:30 71° E 05:58:48 56° SE
Cosmos 1626 4.4 05:59:12 15° NW 05:59:12 15° NW 06:00:38 10° NNW
H-2A R/B 4.0 06:02:25 27° WNW 06:02:25 27° WNW 06:05:22 10° NW
Cosmos 2315 Rocket 4.4 05:57:17 10° N 06:03:26 53° ENE 06:04:55 44° ESE
NOSS 3-4 (A) 4.5 05:57:07 10° NNW 06:03:48 52° NE 06:09:12 20° ESE
NOSS 3-4 (C) 4.5 05:57:13 10° NNW 06:03:54 52° NE 06:09:22 20° ESE
Lacrosse 5 rocket 4.4 06:02:44 10° NNW 06:05:10 15° NNE 06:07:34 10° NE
Cosmos 2285 Rocket 3.9 06:06:17 64° SSE 06:07:13 77° ESE 06:13:34 10° NNE
Cosmos 1553 Rocket 4.2 06:01:28 10° NNW 06:07:21 53° W 06:08:18 48° WSW
Lacrosse 4 Rocket 2.8 06:03:30 10° NW 06:05:57 30° WNW 06:05:57 30° WNW
Cosmos 1697 Rocket 2.6 06:04:32 10° NNW 06:10:12 82° ENE 06:10:50 70° SE
Meteor 1-13 Rocket 4.2 06:12:56 69° S 06:13:43 87° E 06:19:39 10° N
Cosmos 1980 Rocket 3.0 06:11:47 10° NNW 06:17:17 46° ENE 06:19:10 34° ESE
Cosmos 44 Rocket 3.3 06:14:04 10° NNW 06:18:59 71° NE 06:19:06 70° ENE
USA 59 Rocket 1.9 06:15:13 10° WNW 06:17:27 23° W 06:17:27 23° W
USA 234 3.8 06:19:17 10° ESE 06:25:41 58° NNE 06:32:05 10° NW
COSMOS 2406 3.9 06:25:37 38° ESE 06:25:48 39° ESE 06:31:06 10° NE
In-Cosmos 22 4.1 06:25:09 71° SSW 06:25:49 86° W 06:31:36 10° N
Cosmos 1607 4.0 06:26:53 52° SW 06:28:35 77° NW 06:35:07 10° NNE
Meteor 2-10 Rocket 3.9 06:27:06 10° N 06:32:54 65° ENE 06:33:58 55° SE
Cosmos 2228 Rocket 3.4 06:35:01 59° ENE 06:35:01 59° ENE 06:39:02 10° NNE
Cosmos 1655 Rocket 3.9 06:33:57 62° SSW 06:35:09 85° W 06:41:34 10° N
Meteor 1-15 Rocket 4.1 06:38:12 10° NNW 06:43:50 75° W 06:44:20 69° SW
Cosmos 2266 Rocket 4.4 06:44:22 43° WSW 06:45:40 49° WNW 06:51:43 10° N
Meteor 1-22 Rocket 4.0 06:42:06 10° NNW 06:47:24 69° W 06:47:41 68° WSW
SL-16 R/B 4.3 06:43:14 10° N 06:47:37 22° NE 06:51:59 10° E
Cosmos 1400 Rocket 3.3 06:52:53 57° N 06:52:53 57° N 06:56:09 10° N
Meteor 1-21 4.2 06:53:57 62° SSE 06:54:47 72° E 07:00:30 10° NNE
Meteor 2-20 4.4 06:48:39 10° N 06:54:50 85° E 06:56:12 57° SSE
Cosmos 2082 Rocket 2.1 06:54:16 68° S 06:54:59 80° ESE 07:00:43 10° NNE
Cosmos 1833 Rocket 4.0 06:54:45 24° W 06:56:54 32° NW 07:01:53 10° N
Cosmos 1733 Rocket 3.1 06:55:55 10° N 06:59:54 75° N 06:59:54 75° N
Meteor 1-12 Rocket 4.3 06:56:21 10° NNW 07:02:13 69° W 07:03:06 60° SW
CZ-2D R/B 4.2 07:00:53 10° NE 07:04:27 17° E 07:06:34 14° ESE
GP-B 4.0 07:00:29 10° NNW 07:04:17 39° WNW 07:04:17 39° WNW
Cosmos 1346 Rocket 3.3 07:01:52 10° N 07:05:14 55° NE 07:05:14 55° NE
H-2A R/B 3.4 07:02:06 10° N 07:05:56 29° WNW 07:06:13 29° WNW
DELTA 2 R/B (1) 3.9 07:09:07 49° SE 07:09:07 49° SE 07:13:29 10° E
Okean 2 4.1 07:12:29 45° E 07:12:29 45° E 07:16:01 10° NNE
Cosmos 1300 3.9 07:13:18 10° NNW 07:15:31 32° NW 07:15:31 32° NW
Resurs 1-4 Rocket 3.7 07:14:14 10° NE 07:18:24 23° E 07:20:15 19° ESE
SL-14 R/B 4.3 07:22:25 35° NW 07:22:25 35° NW 07:25:27 10° N
Cosmos 676 Rocket 3.9 07:23:42 65° SSW 07:24:30 86° WNW 07:29:52 10° NNE
Cosmos 1953 2.8 07:21:53 10° N 07:25:43 51° E 07:25:47 51° E
Cosmos 1703 Rocket 4.0 07:27:15 49° ESE 07:27:41 51° E 07:32:00 10° NNE
Cosmos 468 Rocket 3.9 07:24:00 10° NNW 07:29:17 74° WSW 07:30:00 64° SSW
Cosmos 2278 4.3 07:24:34 10° NNW 07:30:12 55° ENE 07:34:03 20° SE
Cosmos 1954 Rocket 4.2 07:29:24 53° WSW 07:30:22 63° WNW 07:35:39 10° NNE
Cosmos 1862 Rocket 4.2 07:32:30 42° WNW 07:32:30 42° WNW 07:36:33 10° N
USA 267 4.2 07:27:28 10° NE 07:33:34 44° NNW 07:39:36 10° W
SL-8 R/B 3.6 07:31:43 10° WNW 07:36:31 84° NNE 07:41:18 10° ESE
CZ-2C R/B 4.0 07:33:41 14° SE 07:37:35 34° ENE 07:42:13 10° N
Cosmos 1763 Rocket 4.0 07:33:08 10° NW 07:38:04 41° WSW 07:38:04 41° WSW
Cosmos 2333 Rocket 4.2 07:38:27 10° N 07:43:15 26° NE 07:48:01 10° ESE
SL-08 R/B 4.5 07:42:12 46° SW 07:44:02 68° W 07:50:11 10° N
Lacrosse 5 rocket 2.5 07:40:34 10° NW 07:44:30 42° NE 07:48:14 10° ESE
Cosmos 1356 Rocket 4.3 07:45:34 35° WNW 07:45:34 35° WNW 07:49:15 10° N
Cosmos 2322 Rocket 3.5 07:42:13 10° N 07:47:28 38° ENE 07:52:42 10° SE
Cosmos 1745 Rocket 4.0 07:47:13 41° S 07:49:32 83° E 07:55:51 10° N
MOZ.5/SAFIR/RUBIN 5/SL-8 3.7 07:52:29 55° S 07:53:31 83° WSW 07:58:16 10° NNW
NPP 3.9 07:49:15 10° NNE 07:54:36 62° ESE 07:56:33 38° SSE
NOSS 3-4 (A) 4.4 07:48:06 10° NW 07:54:44 41° WSW 07:56:33 36° SSW
NOSS 3-4 (C) 4.3 07:48:12 10° NW 07:54:50 41° WSW 07:56:43 36° SSW
Cosmos 540 Rocket 4.0 07:50:54 10° NW 07:55:40 39° WSW 07:55:46 39° WSW
ATLAS CENTAUR R/B 4.4 07:45:05 10° NW 07:56:32 40° WSW 07:59:39 32° SSW
Okean 1-7 3.4 07:56:25 47° W 07:56:41 48° WNW 08:00:52 10° N
Cosmos 1315 Rocket 2.7 08:00:47 68° W 08:00:54 68° W 08:04:48 10° N
Cosmos 1980 Rocket 3.3 07:56:17 10° NW 08:00:53 27° W 08:00:53 27° W
ALOS 4.5 07:59:07 10° NE 08:02:18 18° E 08:05:29 10° SE
Helios 1A Rocket 4.1 08:04:36 26° WNW 08:04:36 26° WNW 08:07:11 10° NW
ADEOS II 3.1 08:00:01 10° NNE 08:04:54 38° E 08:07:43 22° SSE
SJ 16-02 2.3 08:06:53 30° SE 08:08:13 38° ESE 08:12:14 10° NE
USA 234 3.4 08:05:25 27° S 08:08:46 48° SW 08:15:04 10° WNW
IDEFIX/ARIANE 42P 2.5 08:04:13 10° NNE 08:09:31 86° ESE 08:11:29 40° S
COSMOS 2406 4.3 08:07:38 24° W 08:10:07 35° NW 08:15:22 10° N
BREEZE-M DEB (TANK) 3.9 08:07:45 10° WNW 08:13:38 34° N 08:16:09 10° ENE
Nadezhda 1 Rocket 4.1 08:07:31 10° NNW 08:13:50 63° W 08:16:37 34° SSW
Cosmos 1703 4.3 08:18:18 27° SE 08:19:41 38° E 08:23:10 10° NNE
Genesis I 3.0 08:20:19 57° SSE 08:20:37 60° ESE 08:24:07 10° NE
Cosmos 1455 3.0 08:17:28 10° NNW 08:20:06 33° WNW 08:20:06 33° WNW
Cosmos 1782 Rocket 3.5 08:22:19 10° NNW 08:26:40 65° W 08:27:54 43° SSW
Cosmos 1908 Rocket 4.4 08:23:18 10° NNW 08:27:15 32° W 08:27:39 32° WSW
BREEZE-M DEB (TANK) 4.0 08:25:57 33° W 08:27:28 71° NNW 08:36:02 10° ENE
CZ-2C R/B 3.4 08:23:17 10° NNE 08:29:07 72° ESE 08:32:29 26° S
Cosmos 1850 Rocket 4.2 08:27:14 35° SW 08:29:19 61° WNW 08:34:34 10° NNE
SL-16 R/B 2.2 08:26:35 10° NNW 08:32:12 65° WSW 08:36:03 21° S
RESURS DK-1 3.9 08:28:58 10° N 08:32:44 35° ENE 08:36:29 10° SE
Meteor 1-4 Rocket 4.2 08:33:53 16° WNW 08:33:53 16° WNW 08:35:27 10° NNW
Cosmos 1741 Rocket 4.2 08:32:29 33° SW 08:34:38 57° WNW 08:39:50 10° NNE
Cosmos 2082 Rocket 4.1 08:36:05 11° W 08:39:45 19° NW 08:43:45 10° N
AQUA 4.1 08:36:21 10° NNE 08:41:03 65° ESE 08:43:54 23° S
H-2A R/B 4.1 08:38:57 10° N 08:42:39 37° WNW 08:43:45 31° WSW
Cosmos 968 Rocket 3.5 08:41:59 31° SW 08:44:21 66° WNW 08:49:28 10° NNE
Cosmos 2219 Rocket 3.5 08:39:24 10° NNW 08:44:46 42° ENE 08:50:07 10° SE
CZ-2D R/B 2.3 08:39:29 10° N 08:44:55 65° WNW 08:47:51 27° SW
CRYOSAT 2 4.3 08:40:11 10° N 08:45:04 76° W 08:47:46 27° SSW
SL-27 R/B 1.7 08:46:45 68° SW 08:47:02 82° WNW 08:49:51 10° NNE
Cosmos 1825 4.1 08:47:42 10° SE 08:50:23 22° E 08:53:05 10° NE
BREEZE-M R/B 4.2 08:47:03 24° WSW 08:50:26 85° SSE 09:08:50 10° ENE
Cosmos 1242 Rocket 3.2 08:50:48 27° WNW 08:50:48 27° WNW 08:53:18 10° NNW
Cosmos 1709 Rocket 4.4 08:48:17 25° SW 08:51:42 49° WNW 08:57:53 10° N
ATLAS 2AS CENTAUR R/B 3.7 08:45:31 10° NNW 08:52:09 49° NE 08:58:32 10° ESE
Cosmos 2360 Rocket 2.2 08:48:13 10° NNW 08:53:55 88° WSW 08:59:36 10° SSE
DELTA 2 R/B (1) 3.7 08:49:50 16° W 08:54:08 52° SSW 08:59:31 10° ESE
SL-16 R/B 2.6 08:48:45 10° SSE 08:55:01 86° ENE 09:01:19 10° NNW
OAO 3 Rocket 4.1 08:54:37 27° SSW 08:55:25 29° S 08:59:36 10° SE
Meteor 1-24 Rocket 3.9 08:51:31 20° S 08:55:55 88° E 09:01:57 10° N
Cosmos 1892 4.0 08:55:11 12° SSE 08:58:06 33° E 09:01:17 10° NNE
Resurs 1-4 Rocket 2.6 08:53:23 10° N 08:58:23 46° WNW 09:01:17 23° SW
Cosmos 2181 Rocket 4.0 08:52:05 10° N 08:58:28 85° W 09:04:43 10° S
Cosmos 1953 4.5 08:59:44 10° WNW 09:00:54 11° W 09:00:54 11° W
Cosmos 2221 Rocket 4.3 08:58:04 12° SSE 09:02:04 53° E 09:06:30 10° NNE
Cosmos 2242 Rocket 4.2 09:00:35 26° SW 09:02:31 40° WNW 09:06:45 10° N
Cosmos 1408 3.2 09:02:22 27° W 09:02:44 28° WNW 09:05:22 10° NNW
MSX 4.5 08:59:22 10° N 09:04:42 41° WNW 09:08:11 20° SW
Tiangong -0.3 09:08:06 17° SSE 09:08:34 18° SSE 09:10:45 10° ESE
SL-4 R/B 2.6 09:06:32 24° SSW 09:08:50 50° SE 09:13:08 10° ENE
Sich 1 Rocket 4.0 09:04:48 10° N 09:09:17 66° E 09:13:42 10° SSE
FENGYUN 3A 3.8 09:04:27 10° N 09:09:46 63° WNW 09:13:34 19° SSW
Cosmos 2151 Rocket 3.7 09:06:56 10° N 09:11:26 76° E 09:15:51 10° SSE
IRAS Rocket 4.2 09:07:38 10° NNE 09:13:10 89° ESE 09:17:50 15° SSW
Cosmos 2098 Rocket 3.8 09:09:48 10° NNW 09:15:01 60° W 09:21:06 10° S
Cosmos 839 Rocket 4.1 09:08:59 10° NW 09:16:06 83° WSW 09:22:15 10° SSE
CZ-2C R/B 3.4 09:15:09 19° SW 09:17:50 31° W 09:22:23 10° NW
Lacrosse 5 rocket 2.1 09:19:15 10° WNW 09:22:40 27° SW 09:25:57 10° S
BREEZE-M DEB (TANK) 4.0 09:21:43 10° NNW 09:23:30 24° NNE 09:26:13 10° E
Cosmos 1814 Rocket 4.4 09:19:10 10° NNW 09:24:04 43° WSW 09:29:01 10° S
Okean 2 Rocket 3.0 09:19:49 10° N 09:24:14 85° W 09:28:38 10° S
Cosmos 1674 Rocket 3.5 09:20:36 14° S 09:24:25 82° W 09:28:53 10° N
Cosmos 2333 Rocket 2.4 09:22:16 10° NW 09:27:49 53° WSW 09:33:22 10° S
Cosmos 405 Rocket 2.5 09:27:47 10° N 09:31:24 85° W 09:35:03 10° S
Cosmos 2322 Rocket 2.9 09:26:24 10° NW 09:31:25 34° WSW 09:36:26 10° SSW
Cosmos 1295 Rocket 4.5 09:30:55 10° SSW 09:37:02 72° W 09:43:08 10° N
Meteor 2-5 Rocket 4.4 09:32:53 14° SW 09:37:37 43° WNW 09:43:17 10° N
Cosmos 2297 Rocket 4.2 09:34:12 10° SSE 09:38:41 25° ESE 09:43:11 10° NE
ATLAS CENTAUR R/B 2.3 09:36:21 10° S 09:39:30 33° ESE 09:42:43 10° NE
ALOS 2.7 09:35:19 10° N 09:39:45 47° WNW 09:43:48 12° SW
Cosmos 1378 Rocket 4.0 09:38:01 14° SSW 09:41:30 43° WNW 09:45:37 10° N
Cosmos 1486 Rocket 4.3 09:36:55 10° S 09:42:05 68° ESE 09:47:15 10° NNE
Cosmos 1570 Rocket 4.0 09:37:33 10° NNW 09:42:51 72° WSW 09:48:08 10° S
ADEOS II 3.2 09:39:54 10° N 09:44:22 29° WNW 09:48:35 11° WSW
Cosmos 2208 Rocket 4.0 09:41:04 10° NNW 09:46:24 88° WSW 09:51:36 10° SSE
SJ 16-02 2.9 09:43:39 11° WSW 09:46:42 21° WNW 09:50:01 10° N
Okean 1 Rocket 3.0 09:45:43 10° NNW 09:50:02 72° W 09:54:19 10° S
Cosmos 2074 Rocket 4.4 09:47:46 10° SSW 09:53:43 47° WNW 09:59:42 10° N
METEOR-M 4.2 09:49:58 10° N 09:55:21 77° WNW 10:00:40 10° SSW
CZ-2C R/B 2.4 09:51:28 10° NNE 09:56:15 78° ESE 10:00:51 10° S
Cosmos 1241 Rocket 4.5 09:51:12 10° SW 09:57:24 82° NW 10:03:39 10° NNE
UNK 4.4 09:53:27 10° SSW 09:57:43 36° W 10:02:01 10° NNW
IRS-1D 4.0 09:53:58 10° NNE 09:59:19 69° ESE 10:04:34 10° S
COSMOS 2455 4.2 09:54:14 10° S 09:59:36 35° ESE 10:05:01 10° NE
Envisat 3.1 09:55:03 10° N 10:00:06 68° WNW 10:05:07 10° SSW
Cosmos 158 Rocket 4.0 09:59:45 10° NNW 10:05:07 70° WSW 10:10:24 10° S
RESURS DK-1 3.7 10:07:12 10° WNW 10:10:13 20° WSW 10:13:14 10° SSW
